EW7149 Weather Reports


time (UTC)temp
C
wind
direction
speed
KPH
gust
KPH
rain 1hr
cm
rain 24hr
cm
rain mn
cm
humidity
%
barometer
mb
20260507101220 10 292 0.0 0.0 0.00 0.53 0.05 1 1011.2
20260507100726 10 292 0.0 0.0 0.00 0.53 0.05 1 1011.0
20260507100223 10 292 0.0 0.0 0.00 0.53 0.05 1 1011.0
20260507095716 10 292 0.0 0.0 0.00 0.53 0.05 1 1011.0
20260507095217 10 292 0.0 0.0 0.00 0.53 0.05 1 1010.9
20260507094726 10 292 0.0 0.0 0.00 0.53 0.05 1 1010.9
20260507094235 10 292 0.0 0.0 0.00 0.53 0.05 1 1010.9
20260507093742 10 292 0.0 0.0 0.00 0.53 0.05 1 1011.0
20260507093252 10 292 0.0 0.0 0.00 0.53 0.05 1 1011.1
20260507092736 10 292 0.0 0.0 0.00 0.53 0.05 1 1010.9
20260507092234 10 292 0.0 0.0 0.00 0.53 0.05 1 1011.0
20260507091230 10 295 0.0 0.0 0.00 0.53 0.05 1 1011.0
20260507090732 10 295 0.0 3.2 0.00 0.53 0.05 1 1010.9
20260507090232 10 295 0.0 4.8 0.00 0.53 0.05 1 1010.8
20260507085723 10 275 0.0 0.0 0.00 0.53 0.05 1 1010.7
20260507085215 10 275 0.0 0.0 0.00 0.53 0.05 1 1010.7
20260507084659 10 277 0.0 0.0 0.00 0.53 0.05 1 1010.6
20260507084204 10 277 0.0 0.0 0.00 0.53 0.05 1 1010.6
20260507082705 10 255 0.0 0.0 0.00 0.53 0.05 1 1010.4
20260507082207 10 255 0.0 0.0 0.00 0.53 0.05 1 1010.2
20260507081715 10 255 0.0 0.0 0.00 0.53 0.05 1 1010.2
20260507081207 10 255 0.0 0.0 0.00 0.53 0.05 1 1010.0
20260507080655 10 255 0.0 0.0 0.00 0.53 0.05 1 1010.0
20260507080156 10 255 0.0 0.0 0.00 0.53 0.05 1 1010.0
20260507075654 10 255 0.0 0.0 0.00 0.53 0.05 1 1010.0
20260507075146 10 255 0.0 0.0 0.00 0.53 0.05 1 1010.1
20260507074627 10 255 0.0 0.0 0.00 0.53 0.05 1 1010.0
20260507073602 10 255 0.0 0.0 0.00 0.53 0.05 1 1010.0
20260507073112 10 255 0.0 3.2 0.00 0.53 0.05 1 1010.1
20260507072617 10 231 0.0 0.0 0.00 0.53 0.05 1 1010.1
20260507072111 10 231 0.0 0.0 0.00 0.53 0.05 1 1010.1
20260507071606 10 229 0.0 4.8 0.00 0.53 0.05 1 1010.2
20260507071105 10 296 0.0 0.0 0.00 0.53 0.05 1 1010.3
20260507070553 10 296 0.0 0.0 0.00 0.53 0.05 1 1010.5
20260507070100 11 299 0.0 0.0 0.00 0.53 0.05 1 1010.6
20260507065040 11 300 0.0 0.0 0.00 0.53 0.05 1 1010.4
20260507064547 11 300 0.0 0.0 0.00 0.53 0.05 1 1010.3
20260507063538 11 257 0.0 0.0 0.00 0.53 0.05 1 1010.4
20260507063033 11 257 0.0 0.0 0.00 0.53 0.05 1 1010.6
20260507062529 11 257 0.0 0.0 0.00 0.53 0.05 1 1010.4
20260507062021 11 257 0.0 1.6 0.00 0.53 0.05 1 1010.5
20260507060958 11 257 0.0 1.6 0.00 0.51 0.03 1 1010.5
20260507060454 11 257 0.0 3.2 0.00 0.51 0.03 1 1010.5
20260507055943 11 257 0.0 0.0 0.00 0.51 0.03 1 1010.3
20260507054907 11 257 0.0 0.0 0.00 0.51 0.03 1 1010.3
20260507054410 11 257 0.0 0.0 0.00 0.51 0.03 1 1010.2
20260507053915 12 257 0.0 0.0 0.00 0.51 0.03 1 1010.2
20260507052909 12 257 0.0 0.0 0.00 0.51 0.03 1 1010.2
20260507052351 12 257 0.0 0.0 0.00 0.51 0.03 1 1010.1
20260507051833 12 257 0.0 0.0 0.00 0.51 0.03 1 1010.1
20260507051339 12 257 0.0 0.0 0.00 0.51 0.03 1 1010.1
20260507050828 12 257 0.0 0.0 0.00 0.51 0.03 1 1010.3
20260507050309 12 257 0.0 4.8 0.00 0.51 0.03 1 1010.6
20260507045813 12 257 0.0 0.0 0.00 0.51 0.03 1 1010.2
20260507045300 12 254 0.0 3.2 0.00 0.51 0.03 1 1010.4
20260507044802 12 246 0.0 0.0 0.00 0.51 0.03 1 1010.6
20260507044245 12 246 0.0 3.2 0.00 0.51 0.03 1 1010.5
20260507043213 12 280 0.0 9.7 0.00 0.51 0.03 1 1010.4
20260507042700 12 9 0.0 9.7 0.00 0.51 0.03 1 1010.1
20260507042147 12 291 0.0 4.8 0.00 0.51 0.03 1 1010.0
20260507041647 12 279 0.0 1.6 0.00 0.51 0.03 1 1009.8
20260507041134 12 279 0.0 3.2 0.00 0.48 0.03 1 1009.7
20260507040618 13 281 0.0 0.0 0.00 0.48 0.03 1 1010.1
20260507040058 13 281 0.0 3.2 0.00 0.48 0.00 1 1010.0
20260507035548 13 271 0.0 3.2 0.00 0.48 0.51 1 1010.0
20260507035038 13 302 0.0 0.0 0.00 0.48 0.51 1 1010.0
20260507034547 13 303 0.0 6.4 0.00 0.48 0.51 1 1010.0
20260507034042 13 277 0.0 0.0 0.00 0.48 0.51 1 1009.7
20260507033544 13 278 0.0 1.6 0.00 0.48 0.51 1 1009.6
20260507033036 13 277 0.0 4.8 0.00 0.48 0.51 1 1009.5
20260507032542 13 252 1.6 0.0 0.00 0.48 0.51 1 1009.3
20260507031532 13 289 1.6 9.7 0.00 0.48 0.51 1 1009.4
20260507031026 14 322 0.0 9.7 0.00 0.48 0.48 1 1009.8
20260507030535 14 284 0.0 8.0 0.00 0.48 0.48 1 1009.6
20260507030027 14 267 0.0 1.6 0.00 0.48 0.48 1 1009.5
20260507025017 14 267 0.0 4.8 0.00 0.48 0.48 1 1009.2
20260507024504 14 267 0.0 4.8 0.00 0.48 0.48 1 1009.2
20260507023946 14 266 0.0 3.2 0.00 0.48 0.48 1 1009.4
20260507023443 14 266 0.0 3.2 0.00 0.48 0.48 1 1009.5
20260507022926 14 266 0.0 4.8 0.00 0.48 0.48 1 1009.5
20260507022418 14 266 0.0 4.8 0.00 0.48 0.48 1 1009.1
20260507021906 14 295 0.0 0.0 0.00 0.48 0.48 1 1009.2
20260507021402 14 295 1.6 8.0 0.00 0.48 0.48 1 1009.2
20260507020908 14 285 1.6 9.7 0.00 0.48 0.48 1 1009.1
20260507020351 14 273 1.6 9.7 0.00 0.48 0.48 1 1009.1
20260507015837 15 288 0.0 9.7 0.00 0.48 0.48 1 1009.2
20260507014838 15 308 1.6 6.4 0.00 0.48 0.48 1 1008.9
20260507014341 15 257 1.6 6.4 0.00 0.48 0.48 1 1008.9
20260507013837 15 316 0.0 11.3 0.00 0.48 0.48 1 1008.9
20260507013323 15 166 1.6 11.3 0.00 0.48 0.48 1 1009.0
20260507012826 15 319 1.6 11.3 0.00 0.46 0.46 1 1009.1
20260507012311 15 280 1.6 11.3 0.00 0.46 0.46 1 1009.4
20260507011815 16 310 1.6 9.7 0.00 0.46 0.46 1 1009.1
20260507011324 16 297 0.0 8.0 0.00 0.46 0.46 1 1009.2
20260507010808 16 273 0.0 8.0 0.00 0.46 0.46 1 1009.2
20260507010307 16 314 0.0 9.7 0.00 0.46 0.46 1 1009.2
20260507005817 16 294 0.0 6.4 0.00 0.46 0.46 1 1009.3
20260507005300 16 351 1.6 11.3 0.00 0.46 0.46 1 1009.1
20260507004757 17 325 1.6 11.3 0.00 0.46 0.46 1 1009.0
20260507004253 17 323 0.0 8.0 0.00 0.46 0.46 1 1009.1
20260507003742 18 223 0.0 8.0 0.00 0.46 0.46 1 1009.1
20260507003225 18 267 0.0 3.2 0.00 0.46 0.46 1 1008.7
20260507002708 18 248 0.0 4.8 0.00 0.46 0.46 1 1008.6
20260507002216 18 88 0.0 0.0 0.00 0.46 0.46 1 1008.6
20260507001707 18 88 0.0 1.6 0.00 0.41 0.43 1 1008.8
20260507001159 18 87 0.0 0.0 0.00 0.41 0.43 1 1008.3
20260507000207 18 87 0.0 3.2 0.00 0.41 0.43 1 1008.3
20260506235654 18 157 0.0 0.0 0.00 0.41 0.43 1 1008.2
20260506235203 19 150 0.0 0.0 0.00 0.41 0.41 1 1008.0
20260506234647 19 148 0.0 0.0 0.00 0.41 0.41 1 1007.8
20260506234157 19 148 0.0 0.0 0.00 0.41 0.41 1 1007.6
20260506233656 19 148 0.0 0.0 0.00 0.41 0.41 1 1007.6
20260506233150 19 148 0.0 0.0 0.00 0.41 0.41 1 1007.6
20260506232656 20 148 0.0 4.8 0.00 0.41 0.41 1 1007.5
20260506232206 20 148 0.0 3.2 0.00 0.41 0.41 1 1007.7
20260506231709 20 149 0.0 1.6 0.00 0.41 0.41 1 1007.5
20260506231210 20 149 0.0 0.0 0.00 0.41 0.41 1 1007.4
20260506230703 20 148 1.6 6.4 0.00 0.41 0.41 1 1007.5
20260506230159 20 148 1.6 6.4 0.00 0.41 0.41 1 1007.4
20260506225133 20 142 0.0 6.4 0.00 0.41 0.41 1 1007.5
20260506224633 20 140 0.0 6.4 0.00 0.41 0.41 1 1007.6
20260506223609 20 143 1.6 11.3 0.00 0.41 0.41 1 1007.4
20260506223056 20 276 1.6 11.3 0.00 0.41 0.41 1 1007.5
20260506222559 20 155 1.6 11.3 0.00 0.41 0.41 1 1007.5
20260506221034 19 152 0.0 8.0 0.00 0.41 0.41 1 1007.4
20260506220011 19 199 0.0 1.6 0.00 0.41 0.41 1 1007.5
20260506215519 19 199 0.0 1.6 0.00 0.41 0.41 1 1007.4
20260506215015 19 199 0.0 1.6 0.00 0.41 0.41 1 1007.4
20260506214518 19 197 0.0 0.0 0.00 0.41 0.41 1 1007.3
20260506214016 19 279 1.6 12.9 0.00 0.41 0.41 1 1007.3
20260506213506 19 298 1.6 12.9 0.00 0.41 0.41 1 1007.3
20260506212959 19 164 0.0 4.8 0.00 0.41 0.41 1 1007.1
20260506212448 19 164 0.0 0.0 0.00 0.41 0.41 1 1007.2
20260506211953 20 164 0.0 8.0 0.00 0.41 0.41 1 1007.1
20260506211442 20 164 1.6 8.0 0.00 0.41 0.41 1 1007.0
20260506210947 20 164 1.6 8.0 0.00 0.41 0.41 1 1006.9
20260506210438 20 172 0.0 6.4 0.00 0.41 0.41 1 1006.8
20260506205936 20 284 0.0 3.2 0.00 0.41 0.41 1 1006.9
20260506205435 19 202 0.0 1.6 0.00 0.41 0.41 1 1006.8
20260506204932 19 204 0.0 1.6 0.00 0.41 0.41 1 1006.6
20260506204418 19 214 0.0 0.0 0.00 0.41 0.41 1 1006.7
20260506203426 20 205 0.0 0.0 0.00 0.41 0.41 1 1006.8
20260506202405 19 143 0.0 0.0 0.00 0.41 0.41 1 1006.9
20260506201900 19 296 0.0 1.6 0.00 0.41 0.41 1 1006.9
20260506200907 19 277 0.0 8.0 0.00 0.41 0.41 1 1006.8
20260506200348 19 279 0.0 4.8 0.00 0.41 0.41 1 1007.0
20260506195843 19 264 0.0 0.0 0.00 0.41 0.41 1 1006.9
20260506195325 19 264 0.0 8.0 0.00 0.41 0.41 1 1007.0
20260506194811 19 283 0.0 9.7 0.00 0.41 0.41 1 1006.9
20260506194254 19 150 0.0 9.7 0.00 0.41 0.41 1 1006.9
20260506193755 20 283 0.0 11.3 0.00 0.41 0.41 1 1007.0
20260506193243 20 275 0.0 11.3 0.00 0.41 0.41 1 1006.9
20260506192747 20 141 1.6 11.3 0.00 0.41 0.41 1 1006.8
20260506191748 20 261 1.6 3.2 0.00 0.41 0.41 1 1006.9
20260506191236 20 233 1.6 12.9 0.00 0.41 0.41 1 1007.0
20260506190722 19 153 1.6 12.9 0.00 0.41 0.41 1 1006.9
20260506185200 18 139 3.2 17.7 0.00 0.41 0.41 1 1007.1
20260506184647 18 136 3.2 17.7 0.00 0.41 0.41 1 1007.1
20260506184154 18 232 4.8 17.7 0.00 0.41 0.41 1 1007.2
20260506183637 17 155 6.4 17.7 0.00 0.41 0.41 1 1007.2
20260506183128 17 152 4.8 20.9 0.00 0.41 0.41 1 1007.2
20260506182625 17 180 3.2 20.9 0.00 0.41 0.41 1 1007.2
20260506182135 17 154 6.4 20.9 0.00 0.41 0.41 1 1007.2
20260506181153 17 252 1.6 14.5 0.00 0.41 0.41 1 1007.2
20260506180638 17 133 3.2 14.5 0.00 0.41 0.41 1 1007.4
20260506180121 17 155 4.8 14.5 0.00 0.41 0.41 1 1007.4
20260506175630 17 154 3.2 14.5 0.00 0.41 0.41 1 1007.4
20260506174622 17 175 3.2 14.5 0.00 0.41 0.41 1 1007.5
20260506173607 17 189 3.2 14.5 0.00 0.41 0.41 1 1007.4
20260506173109 17 144 3.2 12.9 0.00 0.41 0.41 1 1007.4
20260506172608 17 159 3.2 22.5 0.00 0.41 0.41 1 1007.4
20260506172057 17 160 3.2 22.5 0.00 0.41 0.41 1 1007.6
20260506171540 17 140 6.4 22.5 0.00 0.41 0.41 1 1007.5
20260506171042 16 171 6.4 22.5 0.00 0.41 0.41 1 1007.4
20260506170540 16 160 4.8 17.7 0.00 0.41 0.41 1 1007.6
20260506170041 16 146 3.2 17.7 0.00 0.41 0.41 1 1007.5
20260506165537 16 157 3.2 17.7 0.00 0.41 0.41 1 1007.5
20260506165023 16 169 6.4 16.1 0.00 0.41 0.41 1 1007.4
20260506164507 16 142 6.4 16.1 0.00 0.41 0.41 1 1007.5
20260506164010 16 159 4.8 14.5 0.00 0.41 0.41 1 1007.5
20260506163510 16 157 4.8 20.9 0.00 0.41 0.41 1 1007.6
20260506162959 16 139 4.8 20.9 0.00 0.41 0.41 1 1007.5
20260506162458 16 142 4.8 20.9 0.00 0.41 0.41 1 1007.5
20260506161954 16 133 4.8 20.9 0.00 0.41 0.41 1 1007.4
20260506161449 16 160 4.8 16.1 0.00 0.41 0.41 1 1007.4
20260506160429 16 146 6.4 17.7 0.00 0.41 0.41 1 1007.6
20260506155359 16 160 6.4 27.4 0.00 0.41 0.41 1 1007.7
20260506154335 16 211 6.4 27.4 0.00 0.41 0.41 1 1007.6
20260506153840 16 188 6.4 19.3 0.00 0.41 0.41 1 1007.5
20260506153349 16 165 6.4 24.1 0.00 0.41 0.41 1 1007.3
20260506152836 16 153 6.4 24.1 0.00 0.41 0.41 1 1007.4
20260506152344 16 144 8.0 24.1 0.00 0.41 0.41 1 1007.6
20260506151828 16 171 8.0 24.1 0.00 0.41 0.41 1 1007.8
20260506151313 16 143 8.0 20.9 0.00 0.36 0.38 1 1007.7
20260506150755 16 163 6.4 17.7 0.10 0.36 0.38 1 1007.6
20260506150237 16 167 6.4 16.1 0.15 0.36 0.38 1 1007.8
20260506145240 16 170 4.8 19.3 0.43 0.33 0.38 1 1008.2
20260506144728 16 144 4.8 19.3 0.13 0.33 0.33 1 1008.3
20260506144217 16 164 6.4 19.3 0.10 0.30 0.30 1 1008.4
20260506143707 16 125 6.4 20.9 0.10 0.30 0.30 1 1008.2
20260506143156 16 133 6.4 20.9 0.10 0.25 0.25 1 1008.0
20260506142645 16 152 8.0 20.9 0.00 0.25 0.25 1 1007.9
20260506141625 16 160 3.2 14.5 0.00 0.23 0.25 1 1007.8
20260506141119 16 166 3.2 16.1 0.00 0.23 0.25 1 1008.0
20260506140623 16 244 4.8 17.7 0.13 0.23 0.25 1 1008.0
20260506140130 16 144 3.2 17.7 0.15 0.23 0.25 1 1008.0
20260506135625 16 172 1.6 20.9 0.15 0.23 0.25 1 1007.9
20260506135123 16 162 1.6 20.9 0.23 0.23 0.23 1 1008.0
20260506134609 16 142 3.2 17.7 0.25 0.20 0.23 1 1007.9
20260506134100 16 180 1.6 17.7 0.10 0.20 0.20 1 1008.2
20260506133543 15 134 1.6 14.5 0.10 0.15 0.15 1 1008.4
20260506133038 15 145 0.0 14.5 0.10 0.15 0.15 1 1008.6
20260506132543 15 158 0.0 0.0 0.10 0.15 0.15 1 1008.6
20260506132053 15 150 0.0 0.0 0.10 0.15 0.15 1 1008.4
20260506131558 15 138 0.0 9.7 0.10 0.15 0.15 1 1008.3
20260506131044 15 127 0.0 11.3 0.10 0.15 0.15 1 1008.4
20260506130538 15 180 1.6 11.3 0.10 0.10 0.13 1 1008.4
20260506130036 15 165 0.0 12.9 0.15 0.10 0.13 1 1008.4
20260506125526 15 134 0.0 9.7 0.15 0.10 0.13 1 1008.2
20260506125016 15 155 0.0 0.0 0.15 0.10 0.10 1 1008.1
20260506124501 15 136 0.0 1.6 0.20 0.10 0.10 1 1008.1
20260506123947 16 150 0.0 4.8 0.15 0.08 0.08 1 1008.2
20260506123442 16 138 0.0 6.4 0.15 0.05 0.05 1 1008.2
20260506122950 16 173 0.0 12.9 0.13 0.05 0.05 1 1008.2
20260506122447 16 128 0.0 17.7 0.13 0.03 0.03 1 1008.3
20260506121438 16 153 0.0 11.3 0.00 0.03 0.03 1 1008.4
20260506120942 17 182 0.0 3.2 0.00 0.00 0.00 1 1008.4
20260506120448 17 267 1.6 20.9 0.00 0.00 0.00 1 1008.6
20260506114435 17 150 0.0 12.9 0.00 0.00 0.00 1 1008.6
20260506113919 17 170 0.0 0.0 0.00 0.00 0.00 1 1008.5
20260506112925 17 120 0.0 11.3 0.00 0.00 0.00 1 1008.3
20260506112429 17 240 0.0 0.0 0.00 0.00 0.00 1 1008.1
20260506111939 17 186 0.0 11.3 0.00 0.00 0.00 1 1008.2
20260506111435 17 151 0.0 11.3 0.00 0.00 0.00 5 1008.1
20260506110928 17 157 0.0 9.7 0.00 0.00 0.00 7 1008.1
20260506105913 18 136 0.0 17.7 0.00 0.00 0.00 17 1007.9
20260506105421 18 144 0.0 0.0 0.00 0.00 0.00 22 1008.0
20260506104909 18 113 0.0 14.5 0.00 0.00 0.00 26 1007.7
20260506104416 18 137 0.0 12.9 0.00 0.00 0.00 27 1007.8
20260506103916 18 173 0.0 11.3 0.00 0.00 0.00 30 1007.6
20260506103359 18 157 0.0 6.4 0.00 0.00 0.00 32 1007.5
20260506102908 18 154 0.0 9.7 0.00 0.00 0.00 33 1007.5
20260506102357 18 171 0.0 17.7 0.00 0.00 0.00 35 1007.5
20260506101856 18 90 0.0 17.7 0.00 0.00 0.00 36 1007.4